Location: Koslow
(50.3020°N, 18.5663°E)
Time: 07:57:20
(UTC+00:00)

STARLINK-1357 - Pass Details

Date: 08 October 2020
Orbit: 548 x 551 km, 53.0° (Epoch: 31 October)

Event Time Altitude Azimuth Distance (km) Brightness Sun altitude
Exits shadow 03:42:18 18° 286° (WNW) 1,381 5.1 -12.8°
Maximum altitude 03:45:15 66° 208° (SSW) 604 3.6 -12.3°
Drops below altitude 10° 03:49:22 10° 126° (SE) 1,825 7.0 -11.6°
Sets 03:51:36 0° 123° (ESE) 2,717 8.1 -11.3°
